Puyallup, WA

1:15 PM PDT on July 23, 2017 (GMT -0700)
Pierce County - Thun Field

Weather History for KPLU - May, 2013

Change the Weather History Date:

Friday, May 10, 2013

  Actual Average (KTCM) Record (KTCM)
Temperature  
Mean Temperature 62 °F -  
Max Temperature 80 °F 60 °F 82 °F (1987)
Min Temperature 44 °F 41 °F 32 °F (1999)
Degree Days  
Heating Degree Days 3    
Growing Degree Days 12 (Base 50)    
Moisture  
Dew Point 52 °F    
Average Humidity 71    
Maximum Humidity 100    
Minimum Humidity 36    
Precipitation  
Precipitation 0.00 in - - ()
Sea Level Pressure  
Sea Level Pressure 30.18 in    
Wind  
Wind Speed 0 mph (North)    
Max Wind Speed 0 mph    
Max Gust Speed -    
Visibility 9 miles    
Events      
Averages and records for this station are not official NWS values.
T = Trace of Precipitation, MM = Missing Value Source: NWS Daily Summary

Daily Weather History Graph

Daily Weather History Graph

Search for Another Location

Airport or City:

Trip Planner

Search our weather history database for the weather conditions in past years. The results will help you decide how hot, cold, wet, or windy it might be!

Date:

Astronomy

May. 10, 2013 Rise Set
Actual Time 5:39 AM PDT 8:32 PM PDT
Civil Twilight 5:04 AM PDT 9:07 PM PDT
Nautical Twilight 4:18 AM PDT 9:53 PM PDT
Astronomical Twilight 3:25 AM PDT 10:48 PM PDT
Moon 6:06 AM PDT (5/10) 9:28 PM PDT (5/10)
Length of Visible Light 16h 03m
Length of Day
14h 52m
New Moon, 1% of the Moon is Illuminated
May 10
New Moon
May 17
First Quarter
May 24
Full
May 31
Last Quarter
Jun 8
New

Hourly Weather History & Observations

Time (PDT) Temp. Heat Index Dew Point Humidity Pressure Visibility Wind Dir Wind Speed Gust Speed Precip Events Conditions
12:15 AM 50.0 °F - 50.0 °F 100% 30.17 in 10.0 mi Calm Calm - N/A   Unknown
12:55 AM 48.2 °F - 48.2 °F 100% 30.18 in 10.0 mi Calm Calm - N/A   Unknown
1:15 AM 48.2 °F - 48.2 °F 100% 30.19 in 10.0 mi Calm Calm - N/A   Unknown
1:55 AM 48.2 °F - 48.2 °F 100% 30.19 in 10.0 mi Calm Calm - N/A   Unknown
2:15 AM 48.2 °F - 48.2 °F 100% 30.19 in 10.0 mi Calm Calm - N/A   Unknown
3:15 AM 46.4 °F - 46.4 °F 100% 30.20 in 10.0 mi Calm Calm - N/A   Unknown
3:35 AM 46.4 °F - 46.4 °F 100% 30.20 in 10.0 mi Calm Calm - N/A   Unknown
4:15 AM 44.6 °F - 44.6 °F 100% 30.20 in 5.0 mi Calm Calm - N/A   Mist
4:35 AM 44.6 °F - 44.6 °F 100% 30.20 in 5.0 mi Calm Calm - N/A   Mist
4:55 AM 44.6 °F - 44.6 °F 100% 30.19 in 6.0 mi Calm Calm - N/A   Mist
5:15 AM 44.6 °F - 44.6 °F 100% 30.19 in 7.0 mi Calm Calm - N/A   Unknown
5:35 AM 44.6 °F - 44.6 °F 100% 30.18 in 8.0 mi Calm Calm - N/A   Unknown
5:55 AM 44.6 °F - 44.6 °F 100% 30.19 in 1.5 mi Calm Calm - N/A   Mist
6:15 AM 44.6 °F - 44.6 °F 100% 30.20 in 3.0 mi Calm Calm - N/A   Mist
6:35 AM 46.4 °F - 46.4 °F 100% 30.20 in 5.0 mi Calm Calm - N/A   Mist
6:55 AM 46.4 °F - 46.4 °F 100% 30.21 in 8.0 mi Calm Calm - N/A   Unknown
7:15 AM 48.2 °F - 48.2 °F 100% 30.21 in 9.0 mi Calm Calm - N/A   Unknown
7:35 AM 51.8 °F - 51.8 °F 100% 30.21 in 9.0 mi Calm Calm - N/A   Unknown
7:55 AM 55.4 °F - 53.6 °F 94% 30.21 in 10.0 mi Calm Calm - N/A   Unknown
8:15 AM 57.2 °F - 53.6 °F 88% 30.21 in 10.0 mi Calm Calm - N/A   Unknown
8:35 AM 59.0 °F - 53.6 °F 82% 30.21 in 10.0 mi Calm Calm - N/A   Unknown
9:15 AM 62.6 °F - 53.6 °F 72% 30.21 in 10.0 mi Calm Calm - N/A   Unknown
9:55 AM 64.4 °F - 55.4 °F 73% 30.21 in 10.0 mi Calm Calm - N/A   Unknown
10:15 AM 66.2 °F - 53.6 °F 64% 30.21 in 10.0 mi Calm Calm - N/A   Unknown
10:35 AM 66.2 °F - 53.6 °F 64% 30.21 in 10.0 mi Calm Calm - N/A   Unknown
10:55 AM 68.0 °F - 55.4 °F 64% 30.20 in 10.0 mi Calm Calm - N/A   Unknown
11:15 AM 69.8 °F - 55.4 °F 60% 30.20 in 10.0 mi Calm Calm - N/A   Unknown
11:35 AM 71.6 °F - 55.4 °F 57% 30.21 in 10.0 mi Calm Calm - N/A   Unknown
11:55 AM 71.6 °F - 55.4 °F 57% 30.20 in 10.0 mi Calm Calm - N/A   Unknown
12:15 PM 71.6 °F - 53.6 °F 53% 30.19 in 10.0 mi Calm Calm - N/A   Unknown
12:35 PM 75.2 °F - 53.6 °F 47% 30.19 in 10.0 mi Calm Calm - N/A   Unknown
12:55 PM 75.2 °F - 53.6 °F 47% 30.18 in 10.0 mi Calm Calm - N/A   Unknown
1:15 PM 75.2 °F - 51.8 °F 44% 30.18 in 10.0 mi Calm Calm - N/A   Unknown
1:35 PM 77.0 °F - 50.0 °F 39% 30.18 in 10.0 mi Calm Calm - N/A   Unknown
1:55 PM 77.0 °F - 51.8 °F 41% 30.17 in 10.0 mi Calm Calm - N/A   Unknown
2:15 PM 77.0 °F - 53.6 °F 44% 30.17 in 10.0 mi Calm Calm - N/A   Unknown
2:35 PM 78.8 °F - 53.6 °F 42% 30.17 in 10.0 mi Calm Calm - N/A   Unknown
2:55 PM 78.8 °F - 53.6 °F 42% 30.17 in 10.0 mi Calm Calm - N/A   Unknown
3:15 PM 78.8 °F - 53.6 °F 42% 30.16 in 10.0 mi Calm Calm - N/A   Unknown
3:35 PM 78.8 °F - 53.6 °F 42% 30.16 in 10.0 mi Calm Calm - N/A   Unknown
3:55 PM 78.8 °F - 53.6 °F 42% 30.15 in 10.0 mi Calm Calm - N/A   Unknown
4:15 PM 78.8 °F - 53.6 °F 42% 30.15 in 10.0 mi Calm Calm - N/A   Unknown
4:35 PM 80.6 °F 80.3 °F 53.6 °F 39% 30.14 in 10.0 mi Calm Calm - N/A   Unknown
4:55 PM 80.6 °F - 51.8 °F 37% 30.14 in 10.0 mi Calm Calm - N/A   Unknown
5:15 PM 78.8 °F - 51.8 °F 39% 30.14 in 10.0 mi Calm Calm - N/A   Unknown
5:35 PM 78.8 °F - 51.8 °F 39% 30.14 in 10.0 mi Calm Calm - N/A   Unknown
5:55 PM 77.0 °F - 50.0 °F 39% 30.14 in 10.0 mi Calm Calm - N/A   Unknown
6:15 PM 78.8 °F - 50.0 °F 36% 30.14 in 10.0 mi Calm Calm - N/A   Unknown
6:35 PM 77.0 °F - 51.8 °F 41% 30.13 in 10.0 mi Calm Calm - N/A   Unknown
6:55 PM 73.4 °F - 55.4 °F 53% 30.13 in 10.0 mi Calm Calm - N/A   Unknown
7:15 PM 75.2 °F - 53.6 °F 47% 30.13 in 10.0 mi Calm Calm - N/A   Unknown
7:35 PM 71.6 °F - 55.4 °F 57% 30.13 in 10.0 mi Calm Calm - N/A   Unknown
7:55 PM 69.8 °F - 57.2 °F 64% 30.13 in 10.0 mi Calm Calm - N/A   Unknown
8:15 PM 66.2 °F - 57.2 °F 73% 30.14 in 10.0 mi Calm Calm - N/A   Unknown
8:55 PM 64.4 °F - 55.4 °F 73% 30.14 in 10.0 mi Calm Calm - N/A   Unknown
9:15 PM 64.4 °F - 55.4 °F 73% 30.15 in 10.0 mi Calm Calm - N/A   Unknown
9:35 PM 64.4 °F - 57.2 °F 77% 30.16 in 10.0 mi Calm Calm - N/A   Unknown
9:55 PM 62.6 °F - 57.2 °F 82% 30.16 in 10.0 mi Calm Calm - N/A   Unknown
10:15 PM 62.6 °F - 57.2 °F 82% 30.17 in 10.0 mi Calm Calm - N/A   Unknown
10:35 PM 59.0 °F - 57.2 °F 94% 30.17 in 10.0 mi Calm Calm - N/A   Unknown
11:15 PM 57.2 °F - 55.4 °F 94% 30.18 in 10.0 mi Calm Calm - N/A   Unknown
11:35 PM 59.0 °F - 53.6 °F 82% 30.18 in 10.0 mi Calm Calm - N/A   Unknown
11:55 PM 57.2 °F - 55.4 °F 94% 30.18 in 10.0 mi Calm Calm - N/A   Unknown